Regional Weather Roundup
Issued by NWS

Home | Current Version | Previous Version | Graphics & Text | Print | Product List | Glossary On
Versions: 1 2 3 4 5 6 7 8 9 10 11 12 13 14 15 16 17 18 19 20 21 22 23 24 25 26
000
ASUS45 KTFX 251910
RWRMT
MONTANA REGIONAL WEATHER ROUNDUP
NATIONAL WEATHER SERVICE GREAT FALLS MT
100 PM MDT WED MAY 25 2016

NOTE: "FAIR" INDICATES FEW OR NO CLOUDS BELOW 12000 FEET WITH NO
SIGNIFICANT WEATHER AND/OR OBSTRUCTIONS TO VISIBILITY.

MTZ001>007-043-252000-
WEST OF THE DIVIDE

CITY           SKY/WX    TMP DP  RH WIND       PRES   REMARKS
KALISPELL      CLOUDY    61  46  57 S9        29.97S
MISSOULA       MOSUNNY   60  43  53 CALM      30.01F
BUTTE          PTSUNNY   54  32  43 N8G16     30.01F
MULLAN PASS    PTSUNNY   48  42  80 NW7       30.06S
ANACONDA         N/A     55  36  47 N6        29.99F
DEER LODGE       N/A     57  41  54 CALM      30.00F
EUREKA           N/A     66  45  45 E6        29.93F
HAMILTON         N/A     61  36  39 SW3       30.01F
LIBBY            N/A     66  43  42 NW7       29.95S
$$

MTZ008-052>055-252000-
SOUTHWEST MONTANA

CITY           SKY/WX    TMP DP  RH WIND       PRES   REMARKS
BOZEMAN        MOSUNNY   59  39  47 NW10      29.97F
DILLON         PTSUNNY   59  35  40 CALM      29.98F
ENNIS          MOSUNNY   57  36  44 VRB6G14   30.03S
$$

MTZ009-010-012-014-046-048-049-054-252000-
EAST SLOPES AND CENTRAL MONTANA

CITY           SKY/WX    TMP DP  RH WIND       PRES   REMARKS
CUT BANK       PTSUNNY   65  43  44 W9        29.86S
GREAT FALLS    PTSUNNY   63  37  38 VRB6      29.87F
MALMSTROM AFB  LGT RAIN  63  41  45 W18G28    29.88F
HELENA         MOSUNNY   64  38  38 W13       29.93F
CHOTEAU          N/A     64  39  39 NW9G17    29.88S
$$

MTZ011-013-016-021-045-047-050-051-252000-
NORTH CENTRAL MONTANA

CITY           SKY/WX    TMP DP  RH WIND       PRES   REMARKS
HAVRE            N/A    N/A N/A N/A MISG      29.85F
LEWISTOWN      PTSUNNY   62  36  37 SW17      29.89S
N BAR RANCH    PTSUNNY   54  43  66 S7        29.91
CHINOOK          N/A     64  46  52 NW6       29.84F
$$

MTZ017>020-022>027-061-062-252000-
NORTHEAST MONTANA

CITY           SKY/WX    TMP DP  RH WIND       PRES   REMARKS
GLASGOW        MOSUNNY   63  43  48 S5        29.85F
JORDAN           N/A     67  42  40 N8        29.85F
SIDNEY         CLOUDY    55  46  71 N18       29.86S
WOLF POINT     CLOUDY    60  48  64 E8        29.88S
PLENTYWOOD       N/A     54  48  82 NW16      29.86F
POPLAR           N/A     55  46  71 NW9       29.88S
$$

MTZ028>42-056>058-252000-
SOUTHCENTRAL AND SOUTHEAST MONTANA

CITY           SKY/WX    TMP DP  RH WIND       PRES   REMARKS
BAKER          CLOUDY    57  44  62 NW14G22   29.89S
BILLINGS       MOSUNNY   64  44  48 VRB6      29.89F
LIVINGSTON     PTSUNNY   62  35  36 SW22G30   29.93S
MILES CITY     PTSUNNY   64  46  52 CALM      29.86F
FORSYTH          N/A     64  45  48 W7        29.86F
$$

REGIONAL REPORTS...DAKOTAS

CITY           SKY/WX    TMP DP  RH WIND       PRES   REMARKS
WILLISTON      CLOUDY    53  49  86 N18G25    29.84R
MINOT          CLOUDY    64  56  75 E7        29.79F
DICKINSON      CLOUDY    57  49  74 W16       29.80R
BEACH          CLOUDY    54  50  87 N15       29.89F
CROSBY         CLOUDY    54  54 100 NW14      29.85F FOG
WATFORD CITY   CLOUDY    54  50  87 NW15G21   29.82S
BISMARCK       CLOUDY    64  58  80 E8        29.78F
GRAND FORKS    LGT RAIN  62  59  90 NW8       29.79S
FARGO          HVY RAIN  64  60  87 SE7       29.71F FOG
BUFFALO SD       N/A     61  44  53 NW22G31   29.80S
RAPID CITY     SUNNY     62  49  62 N23G29    29.85R
$$

REGIONAL REPORTS...WYOMING/IDAHO/WASHINGTON

CITY           SKY/WX    TMP DP  RH WIND       PRES   REMARKS
GILLETTE       PTSUNNY   56  46  69 W6        29.93S
SHERIDAN       RAIN      49  46  90 NW14      29.94R FOG
BUFFALO WY     CLOUDY    53  44  71 S15       29.95R
CODY           CLOUDY    55  45  67 NE9       29.93S
YELLOWSTONE LA   N/A     42  37  82 VRB3      30.06S
IDAHO FALLS    CLOUDY    58  43  57 SW9       30.02S
SALMON         PTSUNNY   57  39  51 NW5       29.99F
BOISE          SUNNY     67  37  33 NW16      30.01F
SPOKANE        PTSUNNY   62  46  55 SW12      30.03R
$$

REGIONAL REPORTS...ALBERTA

CITY           SKY/WX    TMP DP  RH WIND       PRES   REMARKS
EDMONTON       MOSUNNY   68  46  45 SW8       29.85S
CALGARY        PTSUNNY   64  41  42 VRB3      29.88S
LETHBRIDGE     MOSUNNY   63  41  45 N6        29.87S
MEDICINE HAT   PTSUNNY   59  46  63 E8        29.87S
$$

REGIONAL REPORTS...SASKATCHEWAN

CITY           SKY/WX    TMP DP  RH WIND       PRES   REMARKS
SWIFT CURRENT  PTSUNNY   55  48  76 VRB5      29.87F
REGINA         CLOUDY    54  48  82 NW8       29.89R
SASKATOON      PTSUNNY   63  50  63 NE3       29.90F
$$




USA.gov is the U.S. government's official web portal to all federal, state and local government web resources and services.